Location: Grand Mazuras
(45.9128°N, 1.7636°E)
Time: 16:41:22
(UTC+00:00)

ATLAS 5 CENTAUR R/B - Pass Details

Date: 18 April 2021
Orbit: 516 x 1141 km, 63.3° (Epoch: 02 May)

Event Time Altitude Azimuth Distance (km) Brightness Sun altitude
Rises 19:15:59 0° 249° (WSW) 2,674 5.6 -6.1°
Reaches altitude 10° 19:18:16 10° 260° (W) 1,831 5.0 -6.4°
Maximum altitude 19:21:52 29° 323° (NW) 1,090 3.6 -7.0°
Drops below altitude 10° 19:25:56 10° 24° (NNE) 2,071 4.3 -7.6°
Sets 19:28:42 0° 36° (NE) 3,097 5.0 -8.1°
